Regional Weather Roundup
Issued by NWS

Home | Current Version | Previous Version | Text Only | Print | Product List | Glossary On
Versions: 1 2 3 4 5 6 7 8 9 10 11 12 13 14 15 16 17 18 19 20 21 22 23 24 25 26 27 28 29 30 31 32 33 34 35 36 37 38 39 40 41 42 43 44 45 46 47 48 49 50
000
ASUS46 KPQR 092310
RWROR

OREGON REGIONAL WEATHER ROUNDUP
NATIONAL WEATHER SERVICE PORTLAND OR
300 PM PST FRI DEC 09 2016

NOTE: "FAIR" INDICATES FEW OR NO CLOUDS BELOW 12,000 FEET WITH
NO SIGNIFICANT WEATHER AND/OR OBSTRUCTIONS TO VISIBILITY.

ORZ001>013-100000-
NORTHWEST OREGON


CITY           SKY/WX    TMP DP  RH WIND       PRES   REMARKS
ASTORIA        LGT RAIN  42  38  85 E9        29.90S
NEWPORT        LGT RAIN  50  46  87 SW20      29.97F
PORTLAND       LGT RAIN  33  30  88 VRB6      29.99F FOG     WCI  28
VANCOUVER WA   LGT RAIN  33  31  92 S3        30.02R FOG
SCAPPOOSE      MIX PCPN  32  31  96 S5        30.00S FOG     WCI  27
HILLSBORO      LGT RAIN  34  32  92 E6        29.97F FOG     WCI  29
AURORA         MIX PCPN  36  35  96 NE7       29.98F FOG     WCI  30
MCMINNVILLE    LGT RAIN  34  32  92 CALM      29.98S FOG
SALEM          CLOUDY    49  45  86 S8        29.96S
CORVALLIS        N/A     48  46  93 S14       29.97S
EUGENE         LGT RAIN  48  43  82 S14       29.98F
$$

ORZ021-028-100000-
SOUTHWEST OREGON


CITY           SKY/WX    TMP DP  RH WIND       PRES   REMARKS
NORTH BEND     CLOUDY    50  48  93 S7        30.03R
BROOKINGS      RAIN      51  51 100 S6        30.07F FOG
ROSEBURG       LGT RAIN  50  47  89 CALM      30.02F FOG
SEXTON SUMMIT  FOG       37  37 100 S14G25    29.97F VSB 1/4 WCI  28
MEDFORD        LGT RAIN  50  45  83 CALM      30.03R
$$

ORZ014>016-041-100000-
COLUMBIA GORGE


CITY           SKY/WX    TMP DP  RH WIND       PRES   REMARKS
TROUTDALE      FRZ RAIN  32  30  92 E16       30.01S FOG     WCI  21
HOOD RIVER     CLOUDY    27  23  86 NE3       30.12F
THE DALLES     LGT SNOW  27  25  92 CALM      30.15F FOG
$$

ORZ029>031-041-044-049-050-061>064-502-503-505>511-100000-
EASTERN OREGON


CITY           SKY/WX    TMP DP  RH WIND       PRES   REMARKS
REDMOND        CLOUDY    30  22  72 CALM      29.94F
BEND           CLOUDY    32  28  86 CALM      29.93F
PRINEVILLE     CLOUDY    32  28  86 MISG      29.94F
KLAMATH FALLS  CLOUDY    44  36  73 CALM      29.97F
LAKEVIEW       CLOUDY    43  34  70 S20G31    30.03F
HERMISTON      CLOUDY    26  22  84 CALM      30.13F
PENDLETON      CLOUDY    22  18  85 CALM      30.06F
JOHN DAY       DRIZZLE   37  35  96 E5        29.97R WCI  33
MEACHAM        LGT SNOW  32  28  85 CALM      29.95R FOG
LA GRANDE      CLOUDY    30  21  69 N6        30.00S WCI  24
BAKER CITY     LGT SNOW  25  24  96 SW3       30.03S FOG
BURNS          CLOUDY    33  30  88 W5        29.99R WCI  29
ROME             N/A     49  35  58 S14       29.97S
ONTARIO        MIX PCPN  29  26  89 CALM      30.12F FOG
$$



USA.gov is the U.S. government's official web portal to all federal, state and local government web resources and services.